Lid_Strength_Index
-1 -1 -1 -1 -1 -1 0 0 0 -1 -1 -1 -1 -1 -1 -1 -1 -1 -1 -1 -1 -1 -1 -1 -1 2 4 9 9 4 1 0 2 5 7 9 9 8 9 8 8 9 9 8 8 8 8
-1 -1 -1 -1 -1 -1 0 0 0 0 -1 -1 -1 -1 -1 -1 -1 -1 -1 -1 -1 -1 -1 -1 -1 -1 3 11 5 3 4 4 5 7 8 8 8 7 7 8 8 8 8 8 8 8 8
-1 -1 -1 -1 -1 -0 1 1 1 -0 -1 -1 -0 -0 -0 -1 -1 -1 -0 -1 -1 -1 -1 -1 -1 2 6 7 4 3 4 6 5 6 7 7 6 7 7 8 8 8 10 9 9 9 9
-1 -1 -1 -1 -1 -0 1 1 1 1 0 -0 -0 -0 -0 -1 -1 -1 -1 -1 -1 -1 -1 -1 -1 2 8 2 4 4 4 5 5 5 6 5 5 6 7 8 9 10 10 12 10 9 9
-1 -1 -1 -1 -1 -1 1 1 1 1 -0 -0 -0 -0 -0 -0 -1 -1 -1 -1 -1 -1 -1 -1 2 4 9 3 6 5 5 7 6 6 7 5 5 7 8 11 12 11 14 13 12 9 10
-0 -0 -1 -1 -1 -1 -0 1 1 0 -0 0 0 -0 -0 -0 -1 -1 -1 -1 -1 -1 -0 1 3 7 7 7 5 5 6 6 6 7 7 7 8 9 10 12 15 14 14 12 13 11 11
0 0 1 -0 -0 -0 -0 1 2 0 -0 -0 -0 0 -0 -0 -1 -1 -0 1 4 5 3 7 8 8 7 5 4 5 5 5 5 8 9 8 12 13 11 11 10 11 12 13 12 11 12
1 1 1 1 0 0 0 -0 1 1 -0 -0 -0 0 0 -0 -0 -1 0 5 5 4 8 5 7 6 5 5 7 6 5 8 8 11 8 10 14 9 9 10 10 12 12 13 12 11 12
1 1 1 1 0 1 1 0 1 2 1 -0 0 0 0 -0 -0 1 2 3 2 3 8 7 7 7 6 5 7 7 6 7 9 10 9 12 10 8 10 12 12 13 13 14 13 12 12
1 1 1 1 1 1 2 2 1 3 2 -0 -0 0 0 0 2 2 3 1 0 1 11 10 9 7 5 5 7 5 5 7 9 11 9 10 9 10 11 12 11 13 11 11 12 13 17
1 2 1 2 1 2 2 3 2 3 3 2 -0 0 0 1 4 4 2 0 0 3 18 9 9 5 5 7 8 7 6 7 10 10 10 12 11 11 12 11 10 12 11 11 12 13 16
-0 1 1 2 2 2 3 3 3 2 3 3 0 1 1 2 2 2 1 0 3 12 18 11 9 9 9 8 8 8 8 7 8 10 9 11 10 10 10 10 10 10 11 12 13 14 19
-1 -0 1 1 2 2 3 3 3 3 3 3 2 1 2 2 4 1 0 4 13 17 9 12 11 10 11 11 10 10 10 12 13 14 13 12 12 10 10 12 11 12 13 18 19 20 20
-1 -1 -0 1 1 2 3 4 4 4 3 4 3 1 3 3 2 0 3 9 16 13 12 9 10 10 12 11 11 10 11 13 11 11 13 14 16 12 10 11 13 13 13 17 21 20 19
-0 -0 -1 0 1 1 2 4 5 4 4 5 4 4 5 5 2 1 7 14 15 12 9 11 10 12 12 11 11 11 12 13 11 10 14 14 14 11 10 10 11 13 14 12 17 21 19
-1 -1 -1 -0 1 1 1 2 4 4 4 5 6 6 7 4 3 3 9 13 11 8 8 9 13 11 14 13 13 13 13 11 12 9 10 12 15 12 11 11 12 12 11 16 15 22 22
-1 -1 -1 -1 -0 1 1 1 4 4 4 4 7 10 7 4 4 7 13 12 10 6 7 10 11 12 11 12 12 13 13 11 10 10 10 11 12 14 12 13 13 14 14 13 14 15 19
0 -0 -1 -1 -0 0 1 1 3 4 5 5 7 12 6 5 11 10 12 10 8 8 7 8 8 10 11 11 12 12 13 12 9 9 12 10 12 16 14 12 11 12 12 12 15 18 17
1 1 1 -0 -1 -0 0 1 3 4 4 6 9 10 6 7 13 13 11 9 8 9 9 9 10 9 9 11 12 11 11 10 10 10 11 11 13 18 15 13 12 13 12 11 12 14 17
1 1 0 1 0 0 -0 0 2 4 5 6 9 12 10 9 12 13 12 11 11 7 8 8 9 8 10 11 10 11 11 10 9 10 9 8 12 14 16 15 13 14 13 12 12 16 16
0 1 1 -0 1 0 0 0 1 3 4 6 9 12 11 13 12 12 12 12 11 11 8 8 10 10 10 12 12 11 10 10 9 9 10 10 15 13 13 12 13 13 13 13 14 13 15
-0 0 1 1 1 1 0 0 1 1 4 7 11 12 11 12 11 12 12 12 12 11 10 11 11 10 9 12 11 12 10 10 11 10 11 11 15 14 16 13 14 15 13 13 13 13 13
0 0 1 1 1 1 1 1 1 0 3 7 8 8 10 12 12 13 13 12 12 11 11 11 10 10 11 10 8 8 8 8 8 10 11 12 14 15 17 15 15 17 15 14 13 12 13
1 1 1 1 1 1 1 1 1 0 1 4 7 8 11 15 13 13 12 11 11 12 12 11 11 10 9 7 8 9 10 10 9 9 9 13 14 14 17 16 20 15 13 12 13 12 12
1 1 1 1 1 2 2 2 1 1 0 2 4 8 10 14 13 12 12 12 11 11 12 12 11 11 10 9 12 13 14 13 13 13 11 10 13 15 17 20 16 14 15 14 14 14 11
1 1 1 1 2 2 2 2 2 1 1 1 3 4 8 12 14 12 12 12 13 13 13 12 11 10 11 13 13 16 17 15 16 15 13 11 11 13 15 18 20 16 12 11 11 16 12
2 1 1 1 1 2 2 2 2 2 1 2 3 3 7 11 10 11 13 13 11 12 13 13 13 13 12 13 14 15 16 15 17 17 16 14 14 16 16 17 17 15 14 11 17 15 15
2 2 2 1 1 1 2 2 2 2 1 2 3 2 6 9 9 10 10 12 12 12 14 13 13 13 13 14 14 15 15 15 16 15 15 15 15 16 15 17 18 15 15 14 13 15 15
1 2 2 2 2 2 2 2 2 1 1 1 4 2 2 7 8 6 8 8 9 10 11 12 13 13 12 13 13 14 16 15 15 17 14 15 13 14 13 15 14 14 15 13 12 13 15